Simultaneous Nadir Overpasses (SNOs) Predictions

Prediction of SNOs between NOAA-21 and NOAA-19 Satellite Orbit:

Table of predicted SNOs for the next 14.0 days since TLE Epoch: 8/10/2024
Index Date (NOAA-21) Time (NOAA-21) Lat,Lon (NOAA-21) SZA (NOAA-21 ) Date (NOAA-19) Time (NOAA-19) Lat,Lon (NOAA-19) SZA (NOAA-19 ) Distance(km) Time Diff (sec)
1 08/17/2024 20:30:56 72.46,-135.39 59.54 08/17/2024 20:29:45 72.47,-136.78 59.64 46.57 71
2 08/17/2024 21:21:47 -72.80, 31.22 120.09 08/17/2024 21:20:37 -72.81, 31.20 120.06 1.20 70
3 08/17/2024 22:12:33 72.82,-161.51 59.95 08/17/2024 22:11:36 72.80,-161.55 59.95 2.09 57
4 08/17/2024 23:03:18 -72.85, 5.73 120.00 08/17/2024 23:02:34 -72.84, 5.79 120.01 2.30 44
5 08/17/2024 23:54:03 72.82, 173.11 59.98 08/17/2024 23:53:33 72.84, 173.04 60.01 2.78 30
6 08/18/2024 00:44:48 -72.86, -19.65 119.97 08/18/2024 00:44:31 -72.88, -19.61 119.95 2.73 17
7 08/18/2024 01:35:34 72.88, 147.61 60.06 08/18/2024 01:35:30 72.88, 147.63 60.06 0.72 4
8 08/18/2024 02:26:18 -72.86, -45.04 119.95 08/18/2024 02:26:29 -72.87, -45.13 119.94 3.08 11
9 08/18/2024 03:17:04 72.88, 122.23 60.09 08/18/2024 03:17:27 72.91, 122.22 60.12 3.06 23
10 08/18/2024 04:07:49 -72.92, -70.53 119.86 08/18/2024 04:08:26 -72.90, -70.54 119.88 1.68 37
11 08/18/2024 04:58:35 72.94, 96.74 60.18 08/18/2024 04:59:24 72.95, 96.82 60.17 2.73 49
12 08/18/2024 05:49:19 -72.92, -95.91 119.83 08/18/2024 05:50:23 -72.94, -95.95 119.83 2.11 64
13 08/18/2024 06:40:07 73.05, 71.13 60.32 08/18/2024 06:41:20 73.03, 71.52 60.27 12.58 73
14 08/18/2024 07:31:02 -73.58,-122.74 119.09 08/18/2024 07:32:09 -73.51,-120.10 119.30 83.61 67



Historial Predications of SNOs between NOAA-21 and NOAA-19
